Time,TemperatureF,DewpointF,PressureIn,WindDirection,WindDirectionDegrees,WindSpeedMPH,WindSpeedGustMPH,Humidity,HourlyPrecipIn,Conditions,Clouds,dailyrainin,SoftwareType,DateUTC
2013-05-02 00:01:00,52.9,43.0,30.29,NE,53,0.0,0.0,69,0.00,,---,0.00,VWS V14.01,2013-05-02 04:01:00,
2013-05-02 00:06:00,52.6,42.7,30.29,NE,53,0.0,0.0,69,0.00,,---,0.00,VWS V14.01,2013-05-02 04:06:00,
2013-05-02 00:11:00,52.2,42.7,30.28,NE,53,0.0,0.0,70,0.00,,---,0.00,VWS V14.01,2013-05-02 04:11:00,
2013-05-02 00:16:00,51.9,42.8,30.28,NE,53,0.0,0.0,71,0.00,,---,0.00,VWS V14.01,2013-05-02 04:16:00,
2013-05-02 00:21:00,51.6,42.9,30.28,NE,53,0.0,0.0,72,0.00,,---,0.00,VWS V14.01,2013-05-02 04:21:00,
2013-05-02 00:26:00,51.3,43.0,30.28,NE,53,0.0,0.0,73,0.00,,---,0.00,VWS V14.01,2013-05-02 04:26:00,
2013-05-02 00:31:00,51.0,43.0,30.28,NE,53,0.0,0.0,74,0.00,,---,0.00,VWS V14.01,2013-05-02 04:31:00,
2013-05-02 00:36:00,50.7,42.7,30.28,NE,53,0.0,0.0,74,0.00,,---,0.00,VWS V14.01,2013-05-02 04:36:00,
2013-05-02 00:41:00,50.4,42.4,30.28,NE,53,0.0,0.0,74,0.00,,---,0.00,VWS V14.01,2013-05-02 04:41:00,
2013-05-02 00:46:00,50.1,42.5,30.28,NE,53,0.0,0.0,75,0.00,,---,0.00,VWS V14.01,2013-05-02 04:46:00,
2013-05-02 00:51:00,49.8,42.5,30.28,NE,53,0.0,0.0,76,0.00,,---,0.00,VWS V14.01,2013-05-02 04:51:00,
2013-05-02 00:56:00,49.5,42.3,30.28,NE,53,0.0,0.0,76,0.00,,---,0.00,VWS V14.01,2013-05-02 04:56:00,
2013-05-02 01:01:00,49.3,42.1,30.28,NE,53,0.0,0.0,76,0.00,,---,0.00,VWS V14.01,2013-05-02 05:01:00,
2013-05-02 01:06:00,49.0,42.1,30.28,NE,53,0.0,0.0,77,0.00,,---,0.00,VWS V14.01,2013-05-02 05:06:00,
2013-05-02 01:11:00,48.8,41.9,30.28,NE,53,0.0,0.0,77,0.00,,---,0.00,VWS V14.01,2013-05-02 05:11:00,
2013-05-02 01:16:00,48.6,42.1,30.28,NE,53,0.0,0.0,78,0.00,,---,0.00,VWS V14.01,2013-05-02 05:16:00,
2013-05-02 01:21:00,48.3,41.8,30.28,NE,53,0.0,0.0,78,0.00,,---,0.00,VWS V14.01,2013-05-02 05:21:00,
2013-05-02 01:26:00,48.1,41.9,30.28,NE,53,0.0,0.0,79,0.00,,---,0.00,VWS V14.01,2013-05-02 05:26:00,
2013-05-02 01:31:00,47.9,41.7,30.28,NE,53,0.0,0.0,79,0.00,,---,0.00,VWS V14.01,2013-05-02 05:31:00,
2013-05-02 01:36:00,47.7,41.5,30.28,NE,53,0.0,0.0,79,0.00,,---,0.00,VWS V14.01,2013-05-02 05:36:00,
2013-05-02 01:41:00,47.5,41.3,30.28,NE,53,0.0,0.0,79,0.00,,---,0.00,VWS V14.01,2013-05-02 05:41:00,
2013-05-02 01:46:00,47.3,41.5,30.28,NE,53,0.0,0.0,80,0.00,,---,0.00,VWS V14.01,2013-05-02 05:46:00,
2013-05-02 01:51:00,47.1,41.3,30.29,NE,53,0.0,0.0,80,0.00,,---,0.00,VWS V14.01,2013-05-02 05:51:00,
2013-05-02 01:56:00,46.9,41.1,30.28,NE,53,0.0,0.0,80,0.00,,---,0.00,VWS V14.01,2013-05-02 05:56:00,
2013-05-02 02:01:00,46.7,40.9,30.29,NE,53,0.0,0.0,80,0.00,,---,0.00,VWS V14.01,2013-05-02 06:01:00,
2013-05-02 02:06:00,46.5,41.0,30.29,NE,53,0.0,0.0,81,0.00,,---,0.00,VWS V14.01,2013-05-02 06:06:00,
2013-05-02 02:11:00,46.3,40.8,30.29,NE,53,0.0,0.0,81,0.00,,---,0.00,VWS V14.01,2013-05-02 06:11:00,
2013-05-02 02:16:00,46.1,40.6,30.29,NE,53,0.0,0.0,81,0.00,,---,0.00,VWS V14.01,2013-05-02 06:16:00,
2013-05-02 02:21:00,45.9,40.4,30.28,NE,53,0.0,0.0,81,0.00,,---,0.00,VWS V14.01,2013-05-02 06:21:00,
2013-05-02 02:26:00,45.8,40.3,30.28,NE,53,0.0,0.0,81,0.00,,---,0.00,VWS V14.01,2013-05-02 06:26:00,
2013-05-02 02:31:00,45.6,40.1,30.28,NE,53,0.0,0.0,81,0.00,,---,0.00,VWS V14.01,2013-05-02 06:31:00,
2013-05-02 02:36:00,45.4,40.2,30.28,NE,53,0.0,0.0,82,0.00,,---,0.00,VWS V14.01,2013-05-02 06:36:00,
2013-05-02 02:41:00,45.2,40.0,30.28,NE,53,0.0,0.0,82,0.00,,---,0.00,VWS V14.01,2013-05-02 06:41:00,
2013-05-02 02:46:00,45.1,39.9,30.28,NE,53,0.0,0.0,82,0.00,,---,0.00,VWS V14.01,2013-05-02 06:46:00,
2013-05-02 02:51:00,44.9,39.8,30.28,NE,53,0.0,0.0,82,0.00,,---,0.00,VWS V14.01,2013-05-02 06:51:00,
2013-05-02 02:56:00,44.7,39.5,30.28,NE,53,0.0,0.0,82,0.00,,---,0.00,VWS V14.01,2013-05-02 06:56:00,
2013-05-02 03:01:00,44.5,39.7,30.28,NE,53,0.0,0.0,83,0.00,,---,0.00,VWS V14.01,2013-05-02 07:01:00,
2013-05-02 03:06:00,44.4,39.6,30.29,NE,53,0.0,0.0,83,0.00,,---,0.00,VWS V14.01,2013-05-02 07:06:00,
2013-05-02 03:11:00,44.2,39.4,30.29,NE,53,0.0,0.0,83,0.00,,---,0.00,VWS V14.01,2013-05-02 07:11:00,
2013-05-02 03:16:00,44.1,39.3,30.29,NE,53,0.0,0.0,83,0.00,,---,0.00,VWS V14.01,2013-05-02 07:16:00,
2013-05-02 03:21:00,43.9,39.1,30.30,NE,53,0.0,0.0,83,0.00,,---,0.00,VWS V14.01,2013-05-02 07:21:00,
2013-05-02 03:26:00,43.7,38.9,30.30,NE,53,0.0,0.0,83,0.00,,---,0.00,VWS V14.01,2013-05-02 07:26:00,
2013-05-02 03:31:00,43.6,39.1,30.30,NE,53,0.0,0.0,84,0.00,,---,0.00,VWS V14.01,2013-05-02 07:31:00,
2013-05-02 03:36:00,43.4,38.9,30.30,NE,53,0.0,0.0,84,0.00,,---,0.00,VWS V14.01,2013-05-02 07:36:00,
2013-05-02 03:41:00,43.3,38.8,30.30,NE,53,0.0,0.0,84,0.00,,---,0.00,VWS V14.01,2013-05-02 07:41:00,
2013-05-02 03:46:00,43.2,38.7,30.30,NE,53,0.0,0.0,84,0.00,,---,0.00,VWS V14.01,2013-05-02 07:46:00,
2013-05-02 03:51:00,43.0,38.5,30.30,NE,53,0.0,0.0,84,0.00,,---,0.00,VWS V14.01,2013-05-02 07:51:00,
2013-05-02 03:56:00,42.9,38.4,30.30,NE,53,0.0,0.0,84,0.00,,---,0.00,VWS V14.01,2013-05-02 07:56:00,
2013-05-02 04:01:00,42.8,38.6,30.30,NE,53,0.0,0.0,85,0.00,,---,0.00,VWS V14.01,2013-05-02 08:01:00,
2013-05-02 04:06:00,42.7,38.5,30.30,NE,53,0.0,0.0,85,0.00,,---,0.00,VWS V14.01,2013-05-02 08:06:00,
2013-05-02 04:11:00,42.5,38.3,30.30,NE,53,0.0,0.0,85,0.00,,---,0.00,VWS V14.01,2013-05-02 08:11:00,
2013-05-02 04:16:00,42.4,38.2,30.30,NE,53,0.0,0.0,85,0.00,,---,0.00,VWS V14.01,2013-05-02 08:16:00,
2013-05-02 04:21:00,42.3,38.1,30.30,NE,53,0.0,0.0,85,0.00,,---,0.00,VWS V14.01,2013-05-02 08:21:00,
2013-05-02 04:26:00,42.1,37.9,30.30,NE,53,0.0,0.0,85,0.00,,---,0.00,VWS V14.01,2013-05-02 08:26:00,
2013-05-02 04:31:00,42.0,38.1,30.30,NE,53,0.0,0.0,86,0.00,,---,0.00,VWS V14.01,2013-05-02 08:31:00,
2013-05-02 04:36:00,41.8,37.9,30.30,NE,53,0.0,0.0,86,0.00,,---,0.00,VWS V14.01,2013-05-02 08:36:00,
2013-05-02 04:41:00,41.7,37.8,30.30,NE,53,0.0,0.0,86,0.00,,---,0.00,VWS V14.01,2013-05-02 08:41:00,
2013-05-02 04:46:00,41.6,37.7,30.30,NE,53,0.0,0.0,86,0.00,,---,0.00,VWS V14.01,2013-05-02 08:46:00,
2013-05-02 04:51:00,41.4,37.5,30.30,NE,53,0.0,0.0,86,0.00,,---,0.00,VWS V14.01,2013-05-02 08:51:00,
2013-05-02 04:56:00,41.3,37.4,30.31,NE,53,0.0,0.0,86,0.00,,---,0.00,VWS V14.01,2013-05-02 08:56:00,
2013-05-02 05:01:00,41.2,37.3,30.31,NE,53,0.0,0.0,86,0.00,,---,0.00,VWS V14.01,2013-05-02 09:01:00,
2013-05-02 05:06:00,41.1,37.2,30.31,NE,53,0.0,0.0,86,0.00,,---,0.00,VWS V14.01,2013-05-02 09:06:00,
2013-05-02 05:11:00,41.0,37.1,30.31,NE,53,0.0,0.0,86,0.00,,---,0.00,VWS V14.01,2013-05-02 09:11:00,
2013-05-02 05:16:00,40.9,37.0,30.31,NE,53,0.0,0.0,86,0.00,,---,0.00,VWS V14.01,2013-05-02 09:16:00,
2013-05-02 05:21:00,40.8,36.9,30.31,NE,53,0.0,0.0,86,0.00,,---,0.00,VWS V14.01,2013-05-02 09:21:00,
2013-05-02 05:26:00,40.7,36.8,30.31,NE,53,0.0,0.0,86,0.00,,---,0.00,VWS V14.01,2013-05-02 09:26:00,
2013-05-02 05:31:00,40.6,36.8,30.31,NE,53,0.0,0.0,86,0.00,,---,0.00,VWS V14.01,2013-05-02 09:31:00,
2013-05-02 05:36:00,40.5,36.7,30.31,NE,53,0.0,0.0,86,0.00,,---,0.00,VWS V14.01,2013-05-02 09:36:00,
2013-05-02 05:41:00,40.4,36.8,30.31,NE,53,0.0,0.0,87,0.00,,---,0.00,VWS V14.01,2013-05-02 09:41:00,
2013-05-02 05:46:00,40.3,36.8,30.31,NE,53,0.0,0.0,87,0.00,,---,0.00,VWS V14.01,2013-05-02 09:46:00,
2013-05-02 05:51:00,40.2,36.7,30.31,NE,53,0.0,0.0,87,0.00,,---,0.00,VWS V14.01,2013-05-02 09:51:00,
2013-05-02 05:56:00,40.1,36.5,30.31,NE,53,0.0,0.0,87,0.00,,---,0.00,VWS V14.01,2013-05-02 09:56:00,
2013-05-02 06:01:00,40.0,36.5,30.31,NE,53,0.0,0.0,87,0.00,,---,0.00,VWS V14.01,2013-05-02 10:01:00,
2013-05-02 06:06:00,39.9,36.3,30.31,NE,53,0.0,0.0,87,0.00,,---,0.00,VWS V14.01,2013-05-02 10:06:00,
2013-05-02 06:11:00,39.8,36.2,30.31,NE,53,0.0,0.0,87,0.00,,---,0.00,VWS V14.01,2013-05-02 10:11:00,
2013-05-02 06:16:00,39.7,36.2,30.31,NE,53,0.0,0.0,87,0.00,,---,0.00,VWS V14.01,2013-05-02 10:16:00,
2013-05-02 06:21:00,39.6,36.1,30.31,NE,53,0.0,0.0,87,0.00,,---,0.00,VWS V14.01,2013-05-02 10:21:00,
2013-05-02 06:26:00,39.6,36.3,30.32,South,169,0.0,0.0,88,0.00,,---,0.00,VWS V14.01,2013-05-02 10:26:00,
2013-05-02 06:31:00,39.5,36.2,30.31,South,169,0.0,0.0,88,0.00,,---,0.00,VWS V14.01,2013-05-02 10:31:00,
2013-05-02 06:36:00,39.4,36.2,30.31,South,169,0.0,0.0,88,0.00,,---,0.00,VWS V14.01,2013-05-02 10:36:00,
2013-05-02 06:41:00,39.3,36.0,30.32,South,169,0.0,0.0,88,0.00,,---,0.00,VWS V14.01,2013-05-02 10:41:00,
2013-05-02 06:46:00,39.3,36.0,30.32,South,169,0.0,0.0,88,0.00,,---,0.00,VWS V14.01,2013-05-02 10:46:00,
2013-05-02 06:51:00,39.3,36.3,30.32,South,169,0.0,0.0,89,0.00,,---,0.00,VWS V14.01,2013-05-02 10:51:00,
2013-05-02 06:56:00,39.3,36.3,30.32,South,169,0.0,0.0,89,0.00,,---,0.00,VWS V14.01,2013-05-02 10:56:00,
2013-05-02 07:01:00,39.4,36.4,30.32,South,169,0.0,0.0,89,0.00,,---,0.00,VWS V14.01,2013-05-02 11:01:00,
2013-05-02 07:06:00,39.4,36.4,30.32,South,169,0.0,0.0,89,0.00,,---,0.00,VWS V14.01,2013-05-02 11:06:00,
2013-05-02 07:11:00,39.5,36.8,30.32,South,169,0.0,0.0,90,0.00,,---,0.00,VWS V14.01,2013-05-02 11:11:00,
2013-05-02 07:16:00,39.6,36.9,30.32,South,169,0.0,0.0,90,0.00,,---,0.00,VWS V14.01,2013-05-02 11:16:00,
2013-05-02 07:21:00,39.8,37.4,30.32,South,169,0.0,0.0,91,0.00,,---,0.00,VWS V14.01,2013-05-02 11:21:00,
2013-05-02 07:26:00,40.0,37.6,30.32,South,169,0.0,0.0,91,0.00,,---,0.00,VWS V14.01,2013-05-02 11:26:00,
2013-05-02 07:31:00,40.3,37.9,30.33,South,169,0.0,0.0,91,0.00,,---,0.00,VWS V14.01,2013-05-02 11:31:00,
2013-05-02 07:36:00,40.7,38.6,30.33,South,169,0.0,0.0,92,0.00,,---,0.00,VWS V14.01,2013-05-02 11:36:00,
2013-05-02 07:41:00,41.1,39.0,30.33,South,169,0.0,0.0,92,0.00,,---,0.00,VWS V14.01,2013-05-02 11:41:00,
2013-05-02 07:46:00,41.5,39.6,30.33,South,169,0.0,0.0,93,0.00,,---,0.00,VWS V14.01,2013-05-02 11:46:00,
2013-05-02 07:51:00,42.1,40.2,30.33,South,169,0.0,0.0,93,0.00,,---,0.00,VWS V14.01,2013-05-02 11:51:00,
2013-05-02 07:56:00,42.8,41.2,30.33,South,169,0.0,0.0,94,0.00,,---,0.00,VWS V14.01,2013-05-02 11:56:00,
2013-05-02 08:01:00,43.3,41.7,30.33,South,169,0.0,0.0,94,0.00,,---,0.00,VWS V14.01,2013-05-02 12:01:00,
2013-05-02 08:06:00,43.8,42.2,30.33,South,169,0.0,0.0,94,0.00,,---,0.00,VWS V14.01,2013-05-02 12:06:00,
2013-05-02 08:11:00,44.5,43.2,30.33,SSE,165,0.0,0.0,95,0.00,,---,0.00,VWS V14.01,2013-05-02 12:11:00,
2013-05-02 08:16:00,45.4,44.0,30.33,ENE,67,0.0,2.0,95,0.00,,---,0.00,VWS V14.01,2013-05-02 12:16:00,
2013-05-02 08:21:00,46.3,45.0,30.33,East,80,2.0,2.0,95,0.00,,---,0.00,VWS V14.01,2013-05-02 12:21:00,
2013-05-02 08:26:00,47.1,45.7,30.33,East,82,4.0,5.0,95,0.00,,---,0.00,VWS V14.01,2013-05-02 12:26:00,
2013-05-02 08:31:00,47.8,46.4,30.33,East,101,0.0,4.0,95,0.00,,---,0.00,VWS V14.01,2013-05-02 12:31:00,
2013-05-02 08:36:00,48.8,47.2,30.33,ESE,111,0.0,4.0,94,0.00,,---,0.00,VWS V14.01,2013-05-02 12:36:00,
2013-05-02 08:41:00,50.0,48.1,30.34,North,355,4.0,4.0,93,0.00,,---,0.00,VWS V14.01,2013-05-02 12:41:00,
2013-05-02 08:46:00,51.0,48.5,30.34,NE,53,0.0,2.0,91,0.00,,---,0.00,VWS V14.01,2013-05-02 12:46:00,
2013-05-02 08:51:00,52.2,48.5,30.34,ESE,116,1.0,5.0,87,0.00,,---,0.00,VWS V14.01,2013-05-02 12:51:00,
2013-05-02 08:56:00,53.6,47.9,30.33,East,81,2.0,4.0,81,0.00,,---,0.00,VWS V14.01,2013-05-02 12:56:00,
2013-05-02 09:01:00,54.9,47.1,30.34,East,83,1.0,5.0,75,0.00,,---,0.00,VWS V14.01,2013-05-02 13:01:00,
2013-05-02 09:06:00,56.3,47.0,30.33,East,92,0.0,3.0,71,0.00,,---,0.00,VWS V14.01,2013-05-02 13:06:00,
2013-05-02 09:11:00,57.5,47.0,30.33,ENE,66,4.0,5.0,68,0.00,,---,0.00,VWS V14.01,2013-05-02 13:11:00,
2013-05-02 09:16:00,58.4,46.7,30.33,ESE,104,0.0,6.0,65,0.00,,---,0.00,VWS V14.01,2013-05-02 13:16:00,
2013-05-02 09:21:00,59.3,46.3,30.33,East,88,2.0,4.0,62,0.00,,---,0.00,VWS V14.01,2013-05-02 13:21:00,
2013-05-02 09:26:00,60.0,47.0,30.33,ENE,57,0.0,5.0,62,0.00,,---,0.00,VWS V14.01,2013-05-02 13:26:00,
2013-05-02 09:31:00,60.7,46.8,30.33,ENE,67,1.0,5.0,60,0.00,,---,0.00,VWS V14.01,2013-05-02 13:31:00,
2013-05-02 09:36:00,61.4,47.4,30.33,North,350,0.0,3.0,60,0.00,,---,0.00,VWS V14.01,2013-05-02 13:36:00,
2013-05-02 09:41:00,62.1,47.6,30.33,NE,40,0.0,4.0,59,0.00,,---,0.00,VWS V14.01,2013-05-02 13:41:00,
2013-05-02 09:46:00,62.7,47.3,30.33,NNE,18,0.0,5.0,57,0.00,,---,0.00,VWS V14.01,2013-05-02 13:46:00,
2013-05-02 09:51:00,63.3,46.9,30.33,NE,41,1.0,3.0,55,0.00,,---,0.00,VWS V14.01,2013-05-02 13:51:00,
2013-05-02 09:56:00,63.9,47.9,30.33,East,96,2.0,4.0,56,0.00,,---,0.00,VWS V14.01,2013-05-02 13:56:00,
2013-05-02 10:01:00,64.5,48.5,30.33,ESE,107,2.0,4.0,56,0.00,,---,0.00,VWS V14.01,2013-05-02 14:01:00,
2013-05-02 10:06:00,65.1,48.5,30.32,ENE,65,1.0,3.0,55,0.00,,---,0.00,VWS V14.01,2013-05-02 14:06:00,
2013-05-02 10:11:00,65.7,48.6,30.32,NW,306,0.0,3.0,54,0.00,,---,0.00,VWS V14.01,2013-05-02 14:11:00,
2013-05-02 10:16:00,66.0,47.9,30.32,NE,34,3.0,3.0,52,0.00,,---,0.00,VWS V14.01,2013-05-02 14:16:00,
2013-05-02 10:21:00,66.5,48.9,30.32,NE,56,0.0,5.0,53,0.00,,---,0.00,VWS V14.01,2013-05-02 14:21:00,
2013-05-02 10:26:00,67.1,48.9,30.32,ESE,105,5.0,6.0,52,0.00,,---,0.00,VWS V14.01,2013-05-02 14:26:00,
2013-05-02 10:31:00,67.6,48.8,30.32,East,80,0.0,2.0,51,0.00,,---,0.00,VWS V14.01,2013-05-02 14:31:00,
2013-05-02 10:36:00,67.9,48.1,30.32,NNE,24,3.0,3.0,49,0.00,,---,0.00,VWS V14.01,2013-05-02 14:36:00,
2013-05-02 10:41:00,68.3,50.0,30.32,NE,41,2.0,3.0,52,0.00,,---,0.00,VWS V14.01,2013-05-02 14:41:00,
2013-05-02 10:46:00,68.8,49.4,30.32,SSE,159,1.0,3.0,50,0.00,,---,0.00,VWS V14.01,2013-05-02 14:46:00,
2013-05-02 10:51:00,69.0,49.1,30.32,ENE,71,1.0,4.0,49,0.00,,---,0.00,VWS V14.01,2013-05-02 14:51:00,
2013-05-02 10:56:00,69.5,50.6,30.32,ESE,111,4.0,7.0,51,0.00,,---,0.00,VWS V14.01,2013-05-02 14:56:00,
2013-05-02 11:01:00,69.6,49.6,30.32,NNW,337,1.0,4.0,49,0.00,,---,0.00,VWS V14.01,2013-05-02 15:01:00,
2013-05-02 11:06:00,69.7,50.2,30.32,SE,137,1.0,2.0,50,0.00,,---,0.00,VWS V14.01,2013-05-02 15:06:00,
2013-05-02 11:11:00,70.0,49.4,30.32,West,273,1.0,5.0,48,0.00,,---,0.00,VWS V14.01,2013-05-02 15:11:00,
2013-05-02 11:16:00,70.3,51.3,30.31,East,100,2.0,4.0,51,0.00,,---,0.00,VWS V14.01,2013-05-02 15:16:00,
2013-05-02 11:21:00,70.6,49.4,30.32,ENE,75,0.0,4.0,47,0.00,,---,0.00,VWS V14.01,2013-05-02 15:21:00,
2013-05-02 11:26:00,70.9,52.4,30.32,ESE,107,3.0,6.0,52,0.00,,---,0.00,VWS V14.01,2013-05-02 15:26:00,
2013-05-02 11:31:00,71.3,52.3,30.31,East,90,1.0,4.0,51,0.00,,---,0.00,VWS V14.01,2013-05-02 15:31:00,
2013-05-02 11:36:00,71.6,50.9,30.31,East,95,1.0,5.0,48,0.00,,---,0.00,VWS V14.01,2013-05-02 15:36:00,
2013-05-02 11:41:00,72.0,51.8,30.31,NW,325,2.0,4.0,49,0.00,,---,0.00,VWS V14.01,2013-05-02 15:41:00,
2013-05-02 11:46:00,72.4,50.5,30.30,North,355,1.0,5.0,46,0.00,,---,0.00,VWS V14.01,2013-05-02 15:46:00,
2013-05-02 11:51:00,72.7,52.5,30.30,East,85,1.0,4.0,49,0.00,,---,0.00,VWS V14.01,2013-05-02 15:51:00,
2013-05-02 11:56:00,72.9,51.5,30.30,East,98,4.0,6.0,47,0.00,,---,0.00,VWS V14.01,2013-05-02 15:56:00,
2013-05-02 12:01:00,73.1,51.1,30.30,WNW,285,1.0,3.0,46,0.00,,---,0.00,VWS V14.01,2013-05-02 16:01:00,
2013-05-02 12:06:00,73.4,52.5,30.29,NE,55,0.0,2.0,48,0.00,,---,0.00,VWS V14.01,2013-05-02 16:06:00,
2013-05-02 12:11:00,73.7,52.8,30.29,NNE,27,3.0,3.0,48,0.00,,---,0.00,VWS V14.01,2013-05-02 16:11:00,
2013-05-02 12:16:00,74.0,53.7,30.29,East,99,3.0,5.0,49,0.00,,---,0.00,VWS V14.01,2013-05-02 16:16:00,
2013-05-02 12:21:00,74.3,52.8,30.29,ENE,58,1.0,3.0,47,0.00,,---,0.00,VWS V14.01,2013-05-02 16:21:00,
2013-05-02 12:26:00,74.8,53.8,30.28,WNW,296,2.0,4.0,48,0.00,,---,0.00,VWS V14.01,2013-05-02 16:26:00,
2013-05-02 12:31:00,75.0,52.2,30.29,East,95,2.0,6.0,45,0.00,,---,0.00,VWS V14.01,2013-05-02 16:31:00,
2013-05-02 12:36:00,75.2,54.2,30.28,ESE,103,0.0,2.0,48,0.00,,---,0.00,VWS V14.01,2013-05-02 16:36:00,
2013-05-02 12:41:00,75.5,54.5,30.28,WSW,258,2.0,3.0,48,0.00,,---,0.00,VWS V14.01,2013-05-02 16:41:00,
2013-05-02 12:46:00,75.6,50.9,30.28,NNW,344,0.0,5.0,42,0.00,,---,0.00,VWS V14.01,2013-05-02 16:46:00,
2013-05-02 12:51:00,75.6,51.5,30.28,SSE,161,0.0,5.0,43,0.00,,---,0.00,VWS V14.01,2013-05-02 16:51:00,
2013-05-02 12:56:00,75.8,50.5,30.28,ESE,111,4.0,6.0,41,0.00,,---,0.00,VWS V14.01,2013-05-02 16:56:00,
2013-05-02 13:01:00,76.1,52.0,30.28,ENE,76,1.0,3.0,43,0.00,,---,0.00,VWS V14.01,2013-05-02 17:01:00,
2013-05-02 13:06:00,76.4,52.9,30.27,WSW,253,1.0,4.0,44,0.00,,---,0.00,VWS V14.01,2013-05-02 17:06:00,
2013-05-02 13:11:00,76.7,50.6,30.28,NNE,30,1.0,7.0,40,0.00,,---,0.00,VWS V14.01,2013-05-02 17:11:00,
2013-05-02 13:16:00,76.9,51.4,30.27,North,5,2.0,6.0,41,0.00,,---,0.00,VWS V14.01,2013-05-02 17:16:00,
2013-05-02 13:21:00,77.1,50.3,30.27,East,92,0.0,6.0,39,0.00,,---,0.00,VWS V14.01,2013-05-02 17:21:00,
2013-05-02 13:26:00,77.1,50.3,30.27,NW,319,0.0,2.0,39,0.00,,---,0.00,VWS V14.01,2013-05-02 17:26:00,
2013-05-02 13:31:00,77.1,50.3,30.27,East,84,0.0,5.0,39,0.00,,---,0.00,VWS V14.01,2013-05-02 17:31:00,
2013-05-02 13:36:00,77.3,50.4,30.27,East,86,4.0,6.0,39,0.00,,---,0.00,VWS V14.01,2013-05-02 17:36:00,
2013-05-02 13:41:00,77.4,49.1,30.26,ENE,76,4.0,4.0,37,0.00,,---,0.00,VWS V14.01,2013-05-02 17:41:00,
2013-05-02 13:46:00,77.5,47.0,30.26,NNW,342,2.0,9.0,34,0.00,,---,0.00,VWS V14.01,2013-05-02 17:46:00,
2013-05-02 13:51:00,77.5,47.7,30.26,ENE,75,3.0,6.0,35,0.00,,---,0.00,VWS V14.01,2013-05-02 17:51:00,
2013-05-02 13:56:00,77.5,47.7,30.26,NW,322,0.0,2.0,35,0.00,,---,0.00,VWS V14.01,2013-05-02 17:56:00,
2013-05-02 14:01:00,77.7,44.7,30.26,East,96,5.0,9.0,31,0.00,,---,0.00,VWS V14.01,2013-05-02 18:01:00,
2013-05-02 14:06:00,77.7,47.9,30.26,ENE,69,1.0,7.0,35,0.00,,---,0.00,VWS V14.01,2013-05-02 18:06:00,
2013-05-02 14:11:00,77.9,49.6,30.25,SSW,209,0.0,3.0,37,0.00,,---,0.00,VWS V14.01,2013-05-02 18:11:00,
2013-05-02 14:16:00,78.2,46.0,30.25,East,86,5.0,5.0,32,0.00,,---,0.00,VWS V14.01,2013-05-02 18:16:00,
2013-05-02 14:21:00,78.1,45.9,30.25,SE,144,5.0,5.0,32,0.00,,---,0.00,VWS V14.01,2013-05-02 18:21:00,
2013-05-02 14:26:00,78.2,44.3,30.24,East,101,3.0,6.0,30,0.00,,---,0.00,VWS V14.01,2013-05-02 18:26:00,
2013-05-02 14:31:00,78.4,47.0,30.24,East,95,1.0,5.0,33,0.00,,---,0.00,VWS V14.01,2013-05-02 18:31:00,
2013-05-02 14:36:00,78.7,44.7,30.24,NW,305,1.0,2.0,30,0.00,,---,0.00,VWS V14.01,2013-05-02 18:36:00,
2013-05-02 14:41:00,78.9,44.0,30.24,East,80,2.0,6.0,29,0.00,,---,0.00,VWS V14.01,2013-05-02 18:41:00,
2013-05-02 14:46:00,79.1,43.2,30.24,NNW,347,2.0,6.0,28,0.00,,---,0.00,VWS V14.01,2013-05-02 18:46:00,
2013-05-02 14:51:00,79.2,44.2,30.24,East,86,1.0,5.0,29,0.00,,---,0.00,VWS V14.01,2013-05-02 18:51:00,
2013-05-02 14:56:00,79.5,44.5,30.24,East,84,1.0,5.0,29,0.00,,---,0.00,VWS V14.01,2013-05-02 18:56:00,
2013-05-02 15:01:00,79.8,44.8,30.23,ENE,70,2.0,4.0,29,0.00,,---,0.00,VWS V14.01,2013-05-02 19:01:00,
2013-05-02 15:06:00,80.2,46.0,30.23,NNW,333,2.0,5.0,30,0.00,,---,0.00,VWS V14.01,2013-05-02 19:06:00,
2013-05-02 15:11:00,80.5,47.1,30.23,East,88,0.0,4.0,31,0.00,,---,0.00,VWS V14.01,2013-05-02 19:11:00,
2013-05-02 15:16:00,80.9,43.8,30.23,NNE,13,0.0,1.0,27,0.00,,---,0.00,VWS V14.01,2013-05-02 19:16:00,
2013-05-02 15:21:00,81.1,47.6,30.22,East,95,2.0,4.0,31,0.00,,---,0.00,VWS V14.01,2013-05-02 19:21:00,
2013-05-02 15:26:00,81.3,46.0,30.22,ESE,114,0.0,6.0,29,0.00,,---,0.00,VWS V14.01,2013-05-02 19:26:00,
2013-05-02 15:31:00,81.5,48.8,30.22,East,100,1.0,2.0,32,0.00,,---,0.00,VWS V14.01,2013-05-02 19:31:00,
2013-05-02 15:36:00,81.7,48.2,30.22,East,100,0.0,2.0,31,0.00,,---,0.00,VWS V14.01,2013-05-02 19:36:00,
2013-05-02 15:41:00,81.9,46.6,30.21,ESE,114,0.0,4.0,29,0.00,,---,0.00,VWS V14.01,2013-05-02 19:41:00,
2013-05-02 15:46:00,82.1,42.8,30.21,East,80,0.0,5.0,25,0.00,,---,0.00,VWS V14.01,2013-05-02 19:46:00,
2013-05-02 15:51:00,82.1,48.5,30.21,NE,37,0.0,2.0,31,0.00,,---,0.00,VWS V14.01,2013-05-02 19:51:00,
2013-05-02 15:56:00,82.0,43.8,30.20,NNE,18,1.0,4.0,26,0.00,,---,0.00,VWS V14.01,2013-05-02 19:56:00,
2013-05-02 16:01:00,82.0,43.8,30.20,East,80,2.0,7.0,26,0.00,,---,0.00,VWS V14.01,2013-05-02 20:01:00,
2013-05-02 16:06:00,82.1,44.8,30.20,East,98,1.0,3.0,27,0.00,,---,0.00,VWS V14.01,2013-05-02 20:06:00,
2013-05-02 16:11:00,82.2,43.9,30.20,NE,34,2.0,3.0,26,0.00,,---,0.00,VWS V14.01,2013-05-02 20:11:00,
2013-05-02 16:16:00,82.5,47.1,30.20,ENE,76,1.0,6.0,29,0.00,,---,0.00,VWS V14.01,2013-05-02 20:16:00,
2013-05-02 16:21:00,82.7,45.3,30.20,North,5,0.0,1.0,27,0.00,,---,0.00,VWS V14.01,2013-05-02 20:21:00,
2013-05-02 16:26:00,82.5,44.2,30.20,NE,39,1.0,8.0,26,0.00,,---,0.00,VWS V14.01,2013-05-02 20:26:00,
2013-05-02 16:31:00,82.2,39.6,30.19,NNE,13,2.0,10.0,22,0.00,,---,0.00,VWS V14.01,2013-05-02 20:31:00,
2013-05-02 16:36:00,82.2,43.9,30.19,ENE,75,0.0,1.0,26,0.00,,---,0.00,VWS V14.01,2013-05-02 20:36:00,
2013-05-02 16:41:00,82.3,46.0,30.19,ESE,104,0.0,2.0,28,0.00,,---,0.00,VWS V14.01,2013-05-02 20:41:00,
2013-05-02 16:46:00,82.3,41.9,30.19,East,86,6.0,6.0,24,0.00,,---,0.00,VWS V14.01,2013-05-02 20:46:00,
2013-05-02 16:51:00,82.2,41.8,30.19,ENE,77,4.0,4.0,24,0.00,,---,0.00,VWS V14.01,2013-05-02 20:51:00,
2013-05-02 16:56:00,82.1,44.8,30.19,NNE,32,2.0,5.0,27,0.00,,---,0.00,VWS V14.01,2013-05-02 20:56:00,
2013-05-02 17:01:00,82.0,43.8,30.19,ESE,113,0.0,3.0,26,0.00,,---,0.00,VWS V14.01,2013-05-02 21:01:00,
2013-05-02 17:06:00,81.8,40.4,30.19,ENE,68,6.0,13.0,23,0.00,,---,0.00,VWS V14.01,2013-05-02 21:06:00,
2013-05-02 17:11:00,81.7,40.3,30.19,SE,145,5.0,11.0,23,0.00,,---,0.00,VWS V14.01,2013-05-02 21:11:00,
2013-05-02 17:16:00,81.4,43.3,30.19,NNE,32,6.0,6.0,26,0.00,,---,0.00,VWS V14.01,2013-05-02 21:16:00,
2013-05-02 17:21:00,81.2,39.9,30.18,East,86,1.0,5.0,23,0.00,,---,0.00,VWS V14.01,2013-05-02 21:21:00,
2013-05-02 17:26:00,80.9,42.8,30.18,East,92,0.0,4.0,26,0.00,,---,0.00,VWS V14.01,2013-05-02 21:26:00,
2013-05-02 17:31:00,80.7,40.6,30.18,East,95,2.0,7.0,24,0.00,,---,0.00,VWS V14.01,2013-05-02 21:31:00,
2013-05-02 17:36:00,80.5,42.5,30.18,ESE,106,8.0,10.0,26,0.00,,---,0.00,VWS V14.01,2013-05-02 21:36:00,
2013-05-02 17:41:00,80.2,43.2,30.18,NE,46,1.0,3.0,27,0.00,,---,0.00,VWS V14.01,2013-05-02 21:41:00,
2013-05-02 17:46:00,79.9,41.0,30.18,East,90,0.0,4.0,25,0.00,,---,0.00,VWS V14.01,2013-05-02 21:46:00,
2013-05-02 17:51:00,79.8,38.8,30.18,ESE,108,5.0,9.0,23,0.00,,---,0.00,VWS V14.01,2013-05-02 21:51:00,
2013-05-02 17:56:00,79.5,41.7,30.18,WNW,291,1.0,6.0,26,0.00,,---,0.00,VWS V14.01,2013-05-02 21:56:00,
2013-05-02 18:01:00,79.3,43.4,30.18,ESE,102,1.0,2.0,28,0.00,,---,0.00,VWS V14.01,2013-05-02 22:01:00,
2013-05-02 18:06:00,79.0,40.2,30.18,ESE,103,2.0,4.0,25,0.00,,---,0.00,VWS V14.01,2013-05-02 22:06:00,
2013-05-02 18:11:00,78.7,41.0,30.18,NNE,24,2.0,3.0,26,0.00,,---,0.00,VWS V14.01,2013-05-02 22:11:00,
2013-05-02 18:16:00,78.3,40.6,30.18,East,83,2.0,4.0,26,0.00,,---,0.00,VWS V14.01,2013-05-02 22:16:00,
2013-05-02 18:21:00,77.8,40.2,30.18,East,92,5.0,5.0,26,0.00,,---,0.00,VWS V14.01,2013-05-02 22:21:00,
2013-05-02 18:26:00,77.3,39.8,30.18,NW,314,0.0,1.0,26,0.00,,---,0.00,VWS V14.01,2013-05-02 22:26:00,
2013-05-02 18:31:00,76.8,41.3,30.18,NNW,341,0.0,3.0,28,0.00,,---,0.00,VWS V14.01,2013-05-02 22:31:00,
2013-05-02 18:36:00,76.2,40.8,30.18,ESE,107,3.0,3.0,28,0.00,,---,0.00,VWS V14.01,2013-05-02 22:36:00,
2013-05-02 18:41:00,75.8,40.4,30.17,NE,40,0.0,2.0,28,0.00,,---,0.00,VWS V14.01,2013-05-02 22:41:00,
2013-05-02 18:46:00,75.3,40.9,30.17,SE,126,3.0,3.0,29,0.00,,---,0.00,VWS V14.01,2013-05-02 22:46:00,
2013-05-02 18:51:00,74.9,40.5,30.18,East,88,1.0,3.0,29,0.00,,---,0.00,VWS V14.01,2013-05-02 22:51:00,
2013-05-02 18:56:00,74.6,41.2,30.18,East,82,0.0,1.0,30,0.00,,---,0.00,VWS V14.01,2013-05-02 22:56:00,
2013-05-02 19:01:00,74.3,41.7,30.18,East,100,1.0,2.0,31,0.00,,---,0.00,VWS V14.01,2013-05-02 23:01:00,
2013-05-02 19:06:00,73.8,42.1,30.18,ENE,68,0.0,4.0,32,0.00,,---,0.00,VWS V14.01,2013-05-02 23:06:00,
2013-05-02 19:11:00,73.3,43.3,30.18,SSW,198,0.0,4.0,34,0.00,,---,0.00,VWS V14.01,2013-05-02 23:11:00,
2013-05-02 19:15:00,72.9,41.3,30.18,ENE,58,0.0,2.0,32,0.00,,---,0.00,VWS V14.01,2013-05-02 23:15:00,
2013-05-02 19:20:00,72.6,41.9,30.18,ENE,74,1.0,3.0,33,0.00,,---,0.00,VWS V14.01,2013-05-02 23:20:00,
2013-05-02 19:25:00,72.2,40.7,30.18,ESE,117,0.0,3.0,32,0.00,,---,0.00,VWS V14.01,2013-05-02 23:25:00,
2013-05-02 19:31:00,71.8,40.4,30.18,East,79,1.0,1.0,32,0.00,,---,0.00,VWS V14.01,2013-05-02 23:31:00,
2013-05-02 19:36:00,71.5,41.7,30.18,SE,142,1.0,3.0,34,0.00,,---,0.00,VWS V14.01,2013-05-02 23:36:00,
2013-05-02 19:40:00,71.0,41.2,30.18,ESE,109,1.0,2.0,34,0.00,,---,0.00,VWS V14.01,2013-05-02 23:40:00,
2013-05-02 19:45:00,70.6,40.1,30.18,NNE,26,0.0,3.0,33,0.00,,---,0.00,VWS V14.01,2013-05-02 23:45:00,
2013-05-02 19:50:00,70.2,40.5,30.18,East,99,2.0,3.0,34,0.00,,---,0.00,VWS V14.01,2013-05-02 23:50:00,
2013-05-02 19:55:00,69.7,40.8,30.18,East,90,0.0,1.0,35,0.00,,---,0.00,VWS V14.01,2013-05-02 23:55:00,
2013-05-02 20:00:00,69.4,40.6,30.18,ENE,69,2.0,3.0,35,0.00,,---,0.00,VWS V14.01,2013-05-03 00:00:00,
2013-05-02 20:05:00,69.1,40.3,30.19,ENE,74,0.0,1.0,35,0.00,,---,0.00,VWS V14.01,2013-05-03 00:05:00,
2013-05-02 20:10:00,68.8,40.1,30.19,NE,49,0.0,0.0,35,0.00,,---,0.00,VWS V14.01,2013-05-03 00:10:00,
2013-05-02 20:15:00,68.4,41.1,30.19,ESE,105,0.0,0.0,37,0.00,,---,0.00,VWS V14.01,2013-05-03 00:15:00,
2013-05-02 20:20:00,68.1,40.9,30.19,East,95,0.0,0.0,37,0.00,,---,0.00,VWS V14.01,2013-05-03 00:20:00,
2013-05-02 20:25:00,67.7,40.5,30.19,East,82,0.0,0.0,37,0.00,,---,0.00,VWS V14.01,2013-05-03 00:25:00,
2013-05-02 20:30:00,67.3,40.2,30.19,East,82,0.0,0.0,37,0.00,,---,0.00,VWS V14.01,2013-05-03 00:30:00,
2013-05-02 20:35:00,67.0,40.6,30.19,NNE,13,0.0,2.0,38,0.00,,---,0.00,VWS V14.01,2013-05-03 00:35:00,
2013-05-02 20:40:00,66.6,41.5,30.19,ENE,78,3.0,3.0,40,0.00,,---,0.00,VWS V14.01,2013-05-03 00:40:00,
2013-05-02 20:45:00,66.2,41.2,30.19,South,186,0.0,0.0,40,0.00,,---,0.00,VWS V14.01,2013-05-03 00:45:00,
2013-05-02 20:50:00,65.8,40.8,30.19,East,80,3.0,3.0,40,0.00,,---,0.00,VWS V14.01,2013-05-03 00:50:00,
2013-05-02 20:55:00,65.3,41.6,30.20,ENE,61,0.0,0.0,42,0.00,,---,0.00,VWS V14.01,2013-05-03 00:55:00,
2013-05-02 21:00:00,64.9,40.7,30.20,NE,51,0.0,0.0,41,0.00,,---,0.00,VWS V14.01,2013-05-03 01:00:00,
2013-05-02 21:05:00,64.6,41.0,30.20,NE,47,0.0,1.0,42,0.00,,---,0.00,VWS V14.01,2013-05-03 01:05:00,
2013-05-02 21:10:00,64.3,40.7,30.20,NE,35,0.0,1.0,42,0.00,,---,0.00,VWS V14.01,2013-05-03 01:10:00,
2013-05-02 21:15:00,64.1,40.6,30.20,NE,36,0.0,3.0,42,0.00,,---,0.00,VWS V14.01,2013-05-03 01:15:00,
2013-05-02 21:20:00,63.9,41.6,30.20,NE,36,0.0,0.0,44,0.00,,---,0.00,VWS V14.01,2013-05-03 01:20:00,
2013-05-02 21:25:00,63.6,41.3,30.20,NE,36,0.0,0.0,44,0.00,,---,0.00,VWS V14.01,2013-05-03 01:25:00,
2013-05-02 21:30:00,63.3,41.0,30.20,NE,36,0.0,0.0,44,0.00,,---,0.00,VWS V14.01,2013-05-03 01:30:00,
2013-05-02 21:35:00,63.1,41.4,30.20,North,355,0.0,0.0,45,0.00,,---,0.00,VWS V14.01,2013-05-03 01:35:00,
2013-05-02 21:40:00,62.8,41.2,30.21,North,355,0.0,0.0,45,0.00,,---,0.00,VWS V14.01,2013-05-03 01:40:00,
2013-05-02 21:45:00,62.5,42.6,30.21,North,355,0.0,0.0,48,0.00,,---,0.00,VWS V14.01,2013-05-03 01:45:00,
2013-05-02 21:50:00,62.2,42.8,30.21,North,355,0.0,0.0,49,0.00,,---,0.00,VWS V14.01,2013-05-03 01:50:00,
2013-05-02 21:55:00,61.8,43.5,30.21,North,355,0.0,0.0,51,0.00,,---,0.00,VWS V14.01,2013-05-03 01:55:00,
2013-05-02 22:00:00,61.3,43.5,30.21,North,355,0.0,0.0,52,0.00,,---,0.00,VWS V14.01,2013-05-03 02:00:00,
2013-05-02 22:05:00,60.9,44.2,30.21,North,355,0.0,0.0,54,0.00,,---,0.00,VWS V14.01,2013-05-03 02:05:00,
2013-05-02 22:10:00,60.4,43.7,30.21,North,355,0.0,0.0,54,0.00,,---,0.00,VWS V14.01,2013-05-03 02:10:00,
2013-05-02 22:15:00,59.8,43.6,30.21,North,355,0.0,0.0,55,0.00,,---,0.00,VWS V14.01,2013-05-03 02:15:00,
2013-05-02 22:20:00,59.2,43.5,30.21,East,81,0.0,1.0,56,0.00,,---,0.00,VWS V14.01,2013-05-03 02:20:00,
2013-05-02 22:25:00,58.6,43.0,30.21,East,81,0.0,0.0,56,0.00,,---,0.00,VWS V14.01,2013-05-03 02:25:00,
2013-05-02 22:30:00,58.2,43.1,30.20,East,81,0.0,0.0,57,0.00,,---,0.00,VWS V14.01,2013-05-03 02:30:00,
2013-05-02 22:35:00,57.7,42.1,30.21,NNE,17,0.0,3.0,56,0.00,,---,0.00,VWS V14.01,2013-05-03 02:35:00,
2013-05-02 22:40:00,57.4,42.3,30.20,NNE,17,0.0,0.0,57,0.00,,---,0.00,VWS V14.01,2013-05-03 02:40:00,
2013-05-02 22:45:00,57.1,42.0,30.20,NNE,17,0.0,0.0,57,0.00,,---,0.00,VWS V14.01,2013-05-03 02:45:00,
2013-05-02 22:50:00,56.7,41.7,30.20,North,5,0.0,0.0,57,0.00,,---,0.00,VWS V14.01,2013-05-03 02:50:00,
2013-05-02 22:55:00,56.4,41.8,30.20,North,5,0.0,0.0,58,0.00,,---,0.00,VWS V14.01,2013-05-03 02:55:00,
2013-05-02 23:00:00,56.1,41.5,30.20,North,5,0.0,0.0,58,0.00,,---,0.00,VWS V14.01,2013-05-03 03:00:00,
2013-05-02 23:05:00,55.9,41.8,30.21,North,5,0.0,0.0,59,0.00,,---,0.00,VWS V14.01,2013-05-03 03:05:00,
2013-05-02 23:10:00,55.7,42.0,30.20,NNW,337,0.0,1.0,60,0.00,,---,0.00,VWS V14.01,2013-05-03 03:10:00,
2013-05-02 23:15:00,55.5,41.9,30.21,NNW,337,0.0,0.0,60,0.00,,---,0.00,VWS V14.01,2013-05-03 03:15:00,
2013-05-02 23:20:00,55.3,41.2,30.21,NNE,18,0.0,0.0,59,0.00,,---,0.00,VWS V14.01,2013-05-03 03:20:00,
2013-05-02 23:25:00,55.2,41.1,30.21,North,355,0.0,0.0,59,0.00,,---,0.00,VWS V14.01,2013-05-03 03:25:00,
2013-05-02 23:30:00,55.1,41.0,30.21,North,355,0.0,0.0,59,0.00,,---,0.00,VWS V14.01,2013-05-03 03:30:00,
2013-05-02 23:35:00,55.0,41.4,30.21,North,355,0.0,0.0,60,0.00,,---,0.00,VWS V14.01,2013-05-03 03:35:00,
2013-05-02 23:40:00,54.9,41.7,30.21,NNW,342,0.0,1.0,61,0.00,,---,0.00,VWS V14.01,2013-05-03 03:40:00,
2013-05-02 23:45:00,54.8,41.6,30.21,NNW,342,0.0,1.0,61,0.00,,---,0.00,VWS V14.01,2013-05-03 03:45:00,
2013-05-02 23:50:00,54.7,42.0,30.21,NNW,342,0.0,0.0,62,0.00,,---,0.00,VWS V14.01,2013-05-03 03:50:00,
2013-05-02 23:55:00,54.6,41.9,30.21,NNW,342,0.0,0.0,62,0.00,,---,0.00,VWS V14.01,2013-05-03 03:55:00,